{"data":{"norad_id":52345,"epoch":"2026-09-19T23:37:43.978656Z","epoch_age_seconds":104094,"freshness":"FRESH","line1":"1 52345U 22045Q   26262.98453679 -.00000671  00000+0 -98504-5 0  9997","line2":"2 52345  53.1606  36.1807 0000924  86.4594 273.6513 15.31699085245249","mean_motion":15.31699085,"eccentricity":9.24e-5,"inclination_deg":53.1606,"raan_deg":36.1807,"arg_perigee_deg":86.4594,"mean_anomaly_deg":273.6513,"bstar":-9.8504e-6,"rev_number":24524,"period_min":94.013244122294,"perigee_km":470.10988630801,"apogee_km":471.37555928078,"semimajor_km":6848.8797227944,"source":"CELESTRAK","updated_at":"2026-09-20T09:00:40.023764Z"}}